Big Rapids, MI

4:56 PM EST on December 07, 2019 (GMT -0500)
Roben-Hood

Weather History for KRQB - July, 2019

Change the Weather History Date:

Saturday, July 20, 2019

  Actual Average Record
Temperature  
Mean Temperature 73 °F -  
Max Temperature 77 °F 83 °F 97 °F (1987)
Min Temperature 68 °F 59 °F 33 °F (2000)
Cooling Degree Days 8    
Growing Degree Days 23 (Base 50)    
Moisture  
Dew Point 68 °F    
Average Humidity 90    
Maximum Humidity 95    
Minimum Humidity 78    
Precipitation  
Precipitation 0.65 in - - ()
Sea Level Pressure  
Sea Level Pressure 29.87 in    
Wind  
Wind Speed 7 mph (WNW)    
Max Wind Speed 21 mph    
Max Gust Speed 48 mph    
Visibility 9 miles    
Events Rain    
Averages and records for this station are not official NWS values.
T = Trace of Precipitation, MM = Missing Value Source: NWS Daily Summary

Daily Weather History Graph

Daily Weather History Graph

Search for Another Location

Airport or City:

Astronomy

Jul. 20, 2019 Rise Set
Actual Time 6:18 AM EDT 9:17 PM EDT
Civil Twilight 5:44 AM EDT 9:51 PM EDT
Nautical Twilight 5:00 AM EDT 10:35 PM EDT
Astronomical Twilight 4:08 AM EDT 11:26 PM EDT
Moon 11:38 PM EDT (7/20) 9:46 AM EDT (7/20)
Length of Visible Light 16h 07m
Length of Day
14h 59m
Waning Gibbous, 87% of the Moon is Illuminated
Jul 20
Waning Gibbous
Jul 24
Last Quarter
Jul 31
New
Aug 7
First Quarter
Aug 15
Full

Hourly Weather History & Observations

Time (EDT) Temp. Dew Point Humidity Pressure Visibility Wind Dir Wind Speed Gust Speed Precip Events Conditions
12:15 AM 76.5 °F 74.3 °F 93% 29.83 in 7.0 mi Calm Calm - N/A   Clear
12:35 AM 77.7 °F 75.2 °F 92% 29.84 in 10.0 mi Calm Calm - N/A   Clear
12:36 AM 77.7 °F 75.2 °F 92% 29.84 in 10.0 mi Calm Calm - N/A   Clear
12:58 AM 77.9 °F 75.4 °F 92% 29.86 in 10.0 mi West 6.9 mph - N/A   Scattered Clouds
1:16 AM 74.3 °F 67.5 °F 79% 29.92 in 7.0 mi NW 19.6 mph 44.9 mph N/A Rain Rain
1:35 AM 70.2 °F 67.1 °F 90% 29.91 in 7.0 mi NW 5.8 mph 19.6 mph 0.05 in Rain Rain
1:36 AM 70.2 °F 67.1 °F 90% 29.91 in 7.0 mi WNW 6.9 mph 19.6 mph 0.06 in Rain Light Rain
1:55 AM 70.2 °F 67.5 °F 91% 29.92 in 10.0 mi West 10.4 mph - 0.09 in Rain Light Rain
2:15 AM 70.0 °F 67.5 °F 92% 29.93 in 10.0 mi WNW 11.5 mph 17.3 mph 0.01 in Rain Light Rain
2:20 AM 70.0 °F 67.5 °F 92% 29.94 in 10.0 mi WNW 10.4 mph 17.3 mph 0.01 in Rain Light Rain
2:38 AM 70.5 °F 68.0 °F 92% 29.95 in 10.0 mi West 10.4 mph 17.3 mph 0.03 in Rain Rain
2:56 AM 70.9 °F 68.5 °F 92% 29.95 in 10.0 mi Calm Calm - 0.05 in Rain Rain
3:15 AM 70.3 °F 68.4 °F 93% 29.93 in 7.0 mi South 8.1 mph - 0.02 in Rain Rain
3:16 AM 70.3 °F 68.4 °F 93% 29.93 in 7.0 mi South 6.9 mph - 0.02 in Rain Rain
3:35 AM 70.2 °F 68.5 °F 95% 29.90 in 10.0 mi South 13.8 mph - 0.04 in Rain Rain
3:40 AM 70.2 °F 68.5 °F 95% 29.88 in 10.0 mi SSE 15.0 mph - 0.04 in Rain Rain
3:58 AM 70.7 °F 68.9 °F 94% 29.87 in 10.0 mi South 13.8 mph 19.6 mph 0.06 in Rain Light Rain
4:16 AM 70.7 °F 68.2 °F 92% 29.82 in 10.0 mi South 15.0 mph 20.7 mph 0.01 in Rain Rain
4:35 AM 70.9 °F 67.1 °F 88% 29.81 in 10.0 mi SW 6.9 mph 18.4 mph 0.02 in Rain Light Rain
4:36 AM 70.9 °F 67.1 °F 88% 29.81 in 10.0 mi SW 6.9 mph - 0.02 in Rain Light Rain
4:55 AM 71.1 °F 66.6 °F 86% 29.86 in 10.0 mi NNE 5.8 mph - 0.03 in   Clear
5:19 AM 70.2 °F 67.1 °F 90% 29.87 in 10.0 mi Calm Calm - 0.01 in Rain Light Rain
5:37 AM 69.8 °F 67.3 °F 92% 29.85 in 10.0 mi Calm Calm - 0.01 in Rain Light Rain
5:55 AM 69.8 °F 67.6 °F 93% 29.85 in 10.0 mi Calm Calm - 0.02 in   Clear
5:56 AM 69.8 °F 67.6 °F 93% 29.85 in 10.0 mi Calm Calm - 0.02 in   Clear
6:15 AM 69.1 °F 67.5 °F 95% 29.85 in 10.0 mi WSW 4.6 mph - N/A   Clear
6:35 AM 69.6 °F 67.6 °F 93% 29.84 in 10.0 mi WSW 3.5 mph - 0.01 in   Scattered Clouds
6:39 AM 69.8 °F 67.6 °F 93% 29.84 in 10.0 mi WNW 4.6 mph - 0.01 in   Scattered Clouds
6:56 AM 69.8 °F 67.3 °F 92% 29.87 in 10.0 mi North 15.0 mph 21.9 mph 0.01 in   Scattered Clouds
7:15 AM 72.0 °F 66.7 °F 84% 29.85 in 10.0 mi West 4.6 mph - N/A Rain Light Rain
7:16 AM 72.0 °F 66.7 °F 84% 29.84 in 10.0 mi West 4.6 mph - N/A Rain Light Rain
7:35 AM 70.7 °F 67.1 °F 88% 29.84 in 10.0 mi Calm Calm - N/A   Mostly Cloudy
7:55 AM 70.7 °F 67.8 °F 91% 29.86 in 10.0 mi West 11.5 mph - 0.01 in   Clear
8:00 AM 70.9 °F 67.6 °F 89% 29.88 in 10.0 mi NNW 8.1 mph - N/A   Scattered Clouds
8:18 AM 73.4 °F 67.1 °F 81% 29.91 in 10.0 mi North 9.2 mph - N/A   Mostly Cloudy
8:35 AM 73.4 °F 66.9 °F 80% 29.90 in 10.0 mi NW 5.8 mph - N/A   Overcast
8:55 AM 72.0 °F 67.6 °F 86% 29.88 in 10.0 mi SW 8.1 mph - N/A Rain Light Rain
8:56 AM 72.0 °F 67.6 °F 86% 29.87 in 10.0 mi SW 8.1 mph - N/A Rain Light Rain
9:19 AM 71.4 °F 68.4 °F 90% 29.87 in 10.0 mi NNW 3.5 mph - N/A   Mostly Cloudy
9:37 AM 72.3 °F 69.4 °F 91% 29.84 in 10.0 mi North - - 0.01 in   Scattered Clouds
9:56 AM 73.4 °F 69.8 °F 88% 29.87 in 10.0 mi NNW 8.1 mph - 0.02 in   Scattered Clouds
10:15 AM 75.2 °F 69.4 °F 82% 29.87 in 10.0 mi NNW 6.9 mph - N/A   Overcast
10:16 AM 75.2 °F 69.3 °F 82% 29.87 in 10.0 mi NNW 8.1 mph - N/A   Overcast
10:35 AM 76.5 °F 69.3 °F 78% 29.86 in 10.0 mi NNW 8.1 mph 19.6 mph 0.01 in   Overcast
11:06 AM 69.8 °F 64.4 °F 83% 29.90 in 0.5 mi North 20.7 mph 48.3 mph N/A Rain Heavy Rain
11:23 AM 69.8 °F 68.0 °F 94% 29.87 in 1.5 mi SE 5.8 mph 17.3 mph 0.02 in Rain Heavy Rain
11:43 AM 69.8 °F 68.0 °F 94% 29.86 in 1.8 mi WNW 10.4 mph - 0.04 in Rain Light Rain
12:17 PM 69.8 °F 68.0 °F 94% 29.87 in 1.0 mi NNW 10.4 mph 18.4 mph 0.03 in   Overcast
12:45 PM 69.8 °F 68.0 °F 94% 29.89 in 10.0 mi NNW 5.8 mph 16.1 mph 0.07 in   Drizzle
1:05 PM 69.8 °F 68.0 °F 94% 29.87 in 10.0 mi NW 8.1 mph 16.1 mph 0.01 in Rain Light Rain
1:23 PM 69.8 °F 68.0 °F 94% 29.86 in 10.0 mi NW 9.2 mph 18.4 mph 0.03 in Rain Light Rain
1:45 PM 69.8 °F 68.0 °F 94% 29.85 in 10.0 mi NW 10.4 mph 16.1 mph 0.06 in   Overcast
2:03 PM 69.8 °F 66.2 °F 88% 29.86 in 10.0 mi WNW 12.7 mph 18.4 mph 0.01 in Rain Rain
2:25 PM 69.8 °F 66.2 °F 88% 29.84 in 10.0 mi WNW 8.1 mph - 0.03 in   Overcast
2:43 PM 69.8 °F 66.2 °F 88% 29.84 in 7.0 mi NE 4.6 mph - 0.05 in Rain Rain
3:16 PM 69.8 °F 68.0 °F 94% 29.81 in 10.0 mi SE 5.8 mph - 0.02 in   Mostly Cloudy
8:57 PM 70.7 °F 68.9 °F 94% 29.81 in 10.0 mi WNW 10.4 mph - 0.03 in   Clear
9:15 PM 70.7 °F 68.5 °F 93% 29.85 in 10.0 mi WNW 11.5 mph 17.3 mph N/A   Scattered Clouds
9:16 PM 70.7 °F 68.5 °F 93% 29.85 in 10.0 mi WNW 12.7 mph 17.3 mph N/A   Scattered Clouds
9:35 PM 70.7 °F 68.5 °F 93% 29.87 in 10.0 mi NW 11.5 mph 17.3 mph 0.01 in   Overcast
9:59 PM 70.5 °F 68.4 °F 93% 29.87 in 10.0 mi NW 8.1 mph 18.4 mph 0.02 in   Overcast
10:17 PM 70.3 °F 68.4 °F 93% 29.87 in 10.0 mi NW 9.2 mph 17.3 mph 0.01 in   Overcast
10:35 PM 70.3 °F 68.2 °F 93% 29.88 in 10.0 mi WNW 10.4 mph 17.3 mph 0.02 in   Overcast
10:36 PM 70.3 °F 68.2 °F 93% 29.88 in 10.0 mi NW 8.1 mph 17.3 mph 0.02 in   Overcast
10:55 PM 69.8 °F 67.8 °F 93% 29.89 in 10.0 mi WNW 13.8 mph 19.6 mph 0.03 in   Overcast
11:19 PM 69.8 °F 67.3 °F 92% 29.90 in 10.0 mi WNW 11.5 mph - 0.01 in   Overcast
11:37 PM 69.4 °F 67.1 °F 92% 29.90 in 10.0 mi WNW 8.1 mph - 0.02 in   Overcast
11:56 PM 68.9 °F 66.9 °F 93% 29.91 in 10.0 mi WNW 11.5 mph - 0.03 in   Overcast